NUSANTARA SATU

Last updated on Mon Feb 16 2026 00:02:50 GMT+0000 (Coordinated Universal Time)

1 44048U 19009A 26046.49808368 -.00000230 00000+0 00000+0 0 9997 2 44048 0.0247 130.6306 0001142 332.4241 7.7377 1.00270689 25552
UTC large
Height (km)
Speed (km/s)
/
Latitude / Longitude
Inclination (degrees)
Orbital Period (minutes)
Azimuth
Elevation
Range (km)
Doppler Factor

Next 0 passes for location: London (51.5072 / 0.1276)

Sorry there are no passes over London.